FW1217 Weather Reports


time (UTC)temp
C
wind
direction
speed
KPH
gust
KPH
rain 1hr
cm
rain 24hr
cm
rain mn
cm
humidity
%
barometer
mb
20260903043043 25 225 3.2 8.0 0.00 0.00 0.00 83 1015.3
20260903041549 25 227 1.6 6.4 0.00 0.00 0.00 83 1015.3
20260903040038 26 232 3.2 6.4 0.00 0.00 0.00 82 1015.4
20260903034537 26 217 0.0 4.8 0.00 0.00 0.00 82 1015.5
20260903033036 26 217 1.6 4.8 0.00 0.00 0.00 82 1015.5
20260903031536 26 266 1.6 4.8 0.00 0.00 0.00 80 1015.6
20260903030036 26 200 0.0 3.2 0.00 0.00 0.00 80 1015.6
20260903024536 27 198 0.0 4.8 0.00 0.00 0.00 79 1015.8
20260903023036 27 194 0.0 3.2 0.00 0.00 0.00 79 1016.0
20260903021538 27 193 0.0 3.2 0.00 0.00 0.00 78 1016.0
20260903020040 27 193 0.0 1.6 0.00 0.00 0.00 77 1016.0
20260903014546 27 193 0.0 1.6 0.00 0.00 0.00 76 1015.9
20260903013034 27 193 0.0 3.2 0.00 0.00 0.00 77 1015.7
20260903011541 28 193 0.0 0.0 0.00 0.00 0.00 77 1015.7
20260903010039 28 193 0.0 1.6 0.00 0.00 0.00 75 1015.6
20260903004533 28 193 0.0 1.6 0.00 0.00 0.00 73 1015.4
20260903003031 29 193 0.0 3.2 0.00 0.00 0.00 71 1015.2
20260903001530 30 215 0.0 4.8 0.00 0.00 0.00 70 1015.2
20260903000030 30 215 0.0 3.2 0.00 0.00 0.00 70 1015.2
20260902234529 30 224 0.0 4.8 0.00 0.00 0.00 70 1015.1
20260902233031 31 227 1.6 6.4 0.00 0.00 0.00 69 1015.2
20260902231541 31 239 3.2 6.4 0.00 0.00 0.00 67 1015.1
20260902230029 32 231 1.6 9.7 0.00 0.00 0.00 65 1015.3
20260902224526 32 201 4.8 11.3 0.00 0.00 0.00 62 1015.3
20260902223036 32 285 4.8 11.3 0.00 0.00 0.00 61 1015.2
20260902221530 33 213 4.8 16.1 0.00 0.00 0.00 60 1015.3
20260902220032 33 184 8.0 16.1 0.00 0.00 0.00 59 1015.4
20260902214524 33 277 6.4 16.1 0.00 0.00 0.00 59 1015.4
20260902213025 33 212 8.0 20.9 0.00 0.00 0.00 57 1015.4
20260902211522 33 257 8.0 16.1 0.00 0.00 0.00 57 1015.5
20260902210021 33 265 4.8 14.5 0.00 0.00 0.00 57 1015.6
20260902204520 33 221 6.4 20.9 0.00 0.00 0.00 58 1015.7
20260902203019 33 294 9.7 19.3 0.00 0.00 0.00 57 1015.9
20260902201518 34 270 6.4 20.9 0.00 0.00 0.00 57 1016.0
20260902200019 34 278 4.8 14.5 0.00 0.00 0.00 56 1016.2
20260902194534 34 232 4.8 17.7 0.00 0.00 0.00 57 1016.3
20260902193016 34 278 8.0 14.5 0.00 0.00 0.00 57 1016.7
20260902191515 34 244 8.0 14.5 0.00 0.00 0.00 57 1016.7
20260902190013 34 196 6.4 16.1 0.00 0.00 0.00 58 1016.8
20260902184512 34 244 6.4 17.7 0.00 0.00 0.00 57 1016.9
20260902183011 34 284 6.4 16.1 0.00 0.00 0.00 57 1017.0
20260902181511 33 261 6.4 16.1 0.00 0.00 0.00 58 1017.3
20260902180009 34 238 6.4 19.3 0.00 0.00 0.00 57 1017.5
20260902174510 33 288 6.4 17.7 0.00 0.00 0.00 59 1017.5
20260902173008 33 290 6.4 19.3 0.00 0.00 0.00 59 1017.6
20260902171503 33 279 8.0 16.1 0.00 0.00 0.00 61 1017.6
20260902170100 33 190 4.8 14.5 0.00 0.00 0.00 61 1017.6
20260902164558 33 263 4.8 11.3 0.00 0.00 0.00 62 1017.6
20260902163054 32 206 4.8 9.7 0.00 0.00 0.00 65 1017.8
20260902161553 32 274 4.8 16.1 0.00 0.00 0.00 65 1017.9
20260902154542 31 290 4.8 12.9 0.00 0.00 0.00 66 1018.1
20260902153039 31 235 4.8 12.9 0.00 0.00 0.00 67 1018.1
20260902151540 31 236 4.8 11.3 0.00 0.00 0.00 68 1018.2
20260902150031 30 279 6.4 12.9 0.00 0.00 0.00 70 1018.3
20260902144526 30 190 4.8 12.9 0.00 0.00 0.00 71 1018.3
20260902143022 29 281 8.0 16.1 0.00 0.00 0.00 72 1018.1
20260902141517 28 221 6.4 17.7 0.00 0.00 0.00 74 1018.0
20260902140016 28 279 9.7 16.1 0.00 0.00 0.00 75 1018.0
20260902134519 27 279 6.4 14.5 0.00 0.00 0.00 78 1018.1
20260902133007 27 231 6.4 12.9 0.00 0.00 0.00 79 1018.1
20260902131502 26 275 4.8 12.9 0.00 0.00 0.00 82 1018.1
20260902130059 25 231 3.2 11.3 0.00 0.00 0.00 83 1017.9
20260902124556 25 207 3.2 8.0 0.00 0.00 0.00 85 1017.8
20260902123051 24 276 3.2 8.0 0.00 0.00 0.00 86 1017.8
20260902121548 23 238 3.2 6.4 0.00 0.00 0.00 88 1017.7
20260902120044 23 227 0.0 3.2 0.00 0.03 0.00 89 1017.6
20260902114543 22 227 0.0 0.0 0.00 0.03 0.00 89 1017.6
20260902113041 22 227 0.0 0.0 0.00 0.03 0.00 89 1017.6
20260902111535 22 227 0.0 3.2 0.00 0.03 0.00 89 1017.5
20260902110040 22 228 0.0 4.8 0.00 0.03 0.00 90 1017.5
20260902104548 22 233 0.0 1.6 0.00 0.03 0.00 90 1017.4
20260902103033 22 233 0.0 3.2 0.00 0.03 0.00 90 1017.3
20260902101533 22 233 0.0 0.0 0.00 0.03 0.00 90 1017.3
20260902100032 22 233 0.0 1.6 0.00 0.03 0.00 91 1017.5
20260902094531 22 233 0.0 0.0 0.00 0.03 0.00 90 1017.3
20260902093034 22 233 0.0 0.0 0.00 0.03 0.00 90 1017.4
20260902091528 22 233 0.0 0.0 0.00 0.03 0.00 89 1017.3
20260902090028 22 233 0.0 0.0 0.00 0.03 0.00 89 1017.3
20260902084525 22 233 0.0 0.0 0.00 0.03 0.00 89 1017.4
20260902083024 23 233 0.0 0.0 0.00 0.03 0.00 89 1017.1
20260902081524 23 233 0.0 0.0 0.00 0.03 0.00 88 1017.0
20260902080023 23 233 0.0 0.0 0.00 0.03 0.00 88 1016.9
20260902074520 23 233 0.0 0.0 0.00 0.03 0.00 87 1016.9
20260902073021 23 233 0.0 0.0 0.00 0.03 0.00 87 1016.8
20260902071530 23 233 0.0 3.2 0.00 0.03 0.00 87 1016.9
20260902070020 23 234 0.0 1.6 0.00 0.03 0.00 88 1016.8
20260902064520 23 234 0.0 0.0 0.00 0.03 0.00 88 1016.8
20260902063017 23 234 0.0 0.0 0.00 0.03 0.00 87 1016.7
20260902061514 24 234 0.0 0.0 0.00 0.03 0.00 85 1016.6
20260902060013 24 234 1.6 4.8 0.00 0.03 0.00 85 1016.4
20260902054512 24 211 3.2 6.4 0.00 0.03 0.00 85 1016.4
20260902053011 25 258 4.8 11.3 0.00 0.03 0.00 84 1016.2
20260902051510 25 224 3.2 6.4 0.00 0.03 0.00 85 1016.2
20260902050009 24 227 3.2 4.8 0.00 0.03 0.00 85 1016.5
20260902044513 24 210 1.6 6.4 0.00 0.03 0.00 85 1016.4